TimeCET,TemperatureF,Dew PointF,Humidity,Sea Level PressureIn,VisibilityMPH,Wind Direction,Wind SpeedMPH,Gust SpeedMPH,PrecipitationIn,Events,Conditions,WindDirDegrees,DateUTC
12:00 AM,66.2,46.4,49,29.80,-9999.0,West,19.6,-,N/A,,Clear,260,2012-11-01 23:00:00
1:00 AM,66,47,40,29.83,6,West,15.0,,,,,270,2012-11-02 00:00:00
1:00 AM,66.2,46.4,49,29.83,-9999.0,West,15.0,-,N/A,,Clear,270,2012-11-02 00:00:00
1:30 AM,66.2,46.4,49,29.83,-9999.0,West,15.0,28.8,N/A,,Clear,270,2012-11-02 00:30:00
4:00 AM,64.4,48.2,56,29.86,-9999.0,West,12.7,24.2,N/A,,Clear,280,2012-11-02 03:00:00
5:30 AM,64.4,48.2,56,29.86,-9999.0,West,12.7,24.2,N/A,,Clear,270,2012-11-02 04:30:00
6:00 AM,64.4,48.2,56,29.86,-9999.0,West,16.1,-,N/A,,Clear,270,2012-11-02 05:00:00
6:30 AM,64.4,50.0,59,29.89,-9999.0,West,13.8,-,N/A,,Clear,270,2012-11-02 05:30:00
7:00 AM,64,50,49,29.89,12,West,17.3,,,,Clear,260,2012-11-02 06:00:00
7:00 AM,64.4,50.0,59,29.89,-9999.0,West,16.1,-,N/A,,Clear,260,2012-11-02 06:00:00
7:30 AM,64.4,48.2,56,29.89,-9999.0,West,16.1,-,N/A,,Clear,270,2012-11-02 06:30:00
8:00 AM,64.4,50.0,59,29.89,-9999.0,West,12.7,-,N/A,,Clear,260,2012-11-02 07:00:00
8:30 AM,66.2,50.0,56,29.92,-9999.0,WSW,16.1,-,N/A,,Clear,250,2012-11-02 07:30:00
9:00 AM,66.2,48.2,52,29.92,-9999.0,WSW,13.8,-,N/A,,Clear,250,2012-11-02 08:00:00
9:30 AM,68.0,48.2,49,29.95,-9999.0,WSW,17.3,-,N/A,,Clear,240,2012-11-02 08:30:00
10:00 AM,68.0,50.0,52,29.95,-9999.0,WSW,16.1,-,N/A,,Clear,240,2012-11-02 09:00:00
10:30 AM,68.0,51.8,56,29.95,-9999.0,WSW,16.1,-,N/A,,Clear,240,2012-11-02 09:30:00
11:00 AM,69.8,50.0,49,29.98,-9999.0,WSW,16.1,-,N/A,,Clear,240,2012-11-02 10:00:00
11:30 AM,69.8,51.8,53,29.95,-9999.0,SW,15.0,-,N/A,,Clear,230,2012-11-02 10:30:00
12:30 PM,71.6,48.2,43,29.95,-9999.0,WSW,15.0,-,N/A,,Clear,240,2012-11-02 11:30:00
1:00 PM,72,47,31,29.95,19,WSW,17.3,,,,Clear,240,2012-11-02 12:00:00
1:00 PM,71.6,46.4,41,29.95,-9999.0,WSW,16.1,-,N/A,,Clear,250,2012-11-02 12:00:00
1:30 PM,71.6,44.6,38,29.95,-9999.0,WSW,17.3,-,N/A,,Clear,250,2012-11-02 12:30:00
2:00 PM,71.6,46.4,41,29.95,-9999.0,WSW,16.1,-,N/A,,Clear,240,2012-11-02 13:00:00
2:30 PM,69.8,53.6,56,29.92,-9999.0,SW,12.7,-,N/A,,Clear,230,2012-11-02 13:30:00
3:00 PM,69.8,55.4,60,29.92,-9999.0,SW,13.8,-,N/A,,Clear,230,2012-11-02 14:00:00
3:30 PM,69.8,55.4,60,29.92,-9999.0,SW,12.7,-,N/A,,Clear,220,2012-11-02 14:30:00
4:00 PM,68.0,55.4,64,29.95,6.2,SW,11.5,-,N/A,,Partly Cloudy,220,2012-11-02 15:00:00
4:30 PM,68.0,55.4,64,29.95,6.2,SW,9.2,-,N/A,,Partly Cloudy,220,2012-11-02 15:30:00
5:00 PM,68.0,57.2,68,29.95,-9999.0,SW,10.4,-,N/A,,Clear,220,2012-11-02 16:00:00
5:30 PM,66.2,59.0,78,29.95,-9999.0,SSW,10.4,-,N/A,,Clear,210,2012-11-02 16:30:00
6:00 PM,64.4,59.0,83,29.95,-9999.0,SW,8.1,-,N/A,,Clear,220,2012-11-02 17:00:00
6:30 PM,64.4,59.0,83,29.95,-9999.0,SW,9.2,-,N/A,,Clear,230,2012-11-02 17:30:00
7:00 PM,64,57,70,29.97,12,SW,8.1,,,,Clear,220,2012-11-02 18:00:00
7:00 PM,64.4,59.0,83,29.95,-9999.0,SW,8.1,-,N/A,,Clear,220,2012-11-02 18:00:00
7:30 PM,64.4,57.2,77,29.98,-9999.0,SW,6.9,-,N/A,,Clear,230,2012-11-02 18:30:00
8:00 PM,64.4,57.2,77,29.98,-9999.0,SW,8.1,-,N/A,,Clear,230,2012-11-02 19:00:00
8:30 PM,62.6,57.2,82,29.98,-9999.0,WSW,4.6,-,N/A,,Clear,240,2012-11-02 19:30:00
9:00 PM,60.8,57.2,88,29.98,-9999.0,WSW,6.9,-,N/A,,Clear,240,2012-11-02 20:00:00
9:30 PM,62.6,59.0,88,29.98,-9999.0,Variable,2.3,-,N/A,,Clear,0,2012-11-02 20:30:00
10:00 PM,62.6,59.0,88,29.98,-9999.0,SW,4.6,-,N/A,,Clear,230,2012-11-02 21:00:00
10:30 PM,64.4,60.8,88,29.98,-9999.0,SSW,4.6,-,N/A,,Clear,210,2012-11-02 21:30:00
11:00 PM,64.4,60.8,88,29.98,6.2,SSW,5.8,-,N/A,,Partly Cloudy,200,2012-11-02 22:00:00
11:30 PM,64.4,62.6,94,29.98,6.2,SSW,8.1,-,N/A,,Partly Cloudy,210,2012-11-02 22:30:00